[[{"header":{"parameterUnit":"m.s-1","parameterCategory":1,"la1":30.2991,"la2":30.254,"lo1":-89.0895,"lo2":-89.0444,"dy":0.0017,"dx":0.0017,"nx":28,"ny":28,"refTime":"2025-08-08T09:00:00:Z","depth":0,"parameterNumber":2,"parameterNumberName":"U-component_of_WINDS"},"data":[0,0,0,0,0,0,0,0,0,0,0,0,0,0,0,0,0,0,0,0,0,0,0,0,0,0,0,0,0,0,0,0,0,0,0,0,0,0,0,0,0,0,0,0,0,0,0,0,0,0,0,0,0,0,0,0,0,0,-5.3938,-5.3937,0,-5.3872,-5.3871,-5.387,-5.3738,-5.3735,-5.3733,-5.373,-5.3665,-5.3666,-5.3666,0,0,0,0,0,0,0,0,0,0,0,0,0,-5.3953,-5.3953,-5.3938,-5.3937,-5.3936,-5.3872,-5.3871,-5.387,-5.3739,-5.3735,-5.3732,-5.3729,-5.3665,-5.3666,-5.3667,0,0,0,0,0,0,0,0,0,0,0,0,0,-5.3923,-5.3953,-5.3938,-5.3863,-5.3855,-5.3872,-5.3871,-5.387,-5.3739,-5.3735,-5.3731,-5.3728,-5.3665,-5.3666,-5.3667,-5.3752,0,0,-5.367,-5.367,0,0,0,0,0,0,0,0,-5.3925,-5.3922,-5.3875,-5.3868,-5.386,-5.3809,-5.3852,-5.3831,-5.374,-5.3783,-5.373,-5.3726,-5.3716,-5.3713,-5.3709,-5.3749,-5.3746,-5.367,-5.3671,-5.3671,-5.3671,0,0,0,0,0,0,0,-5.3927,-5.3924,-5.3912,-5.3874,-5.3865,-5.3833,-5.3825,-5.3848,-5.3773,-5.3779,-5.3769,-5.3763,-5.3711,-5.3709,-5.3707,-5.3745,-5.367,-5.3671,-5.3672,-5.3672,-5.3852,-5.3856,0,0,0,0,0,0,-5.3939,-5.3927,-5.3914,-5.391,-5.3883,-5.3836,-5.3826,-5.3829,-5.3772,-5.376,-5.3767,-5.3757,-5.3709,-5.3706,-5.3704,-5.3799,-5.3671,-5.3672,-5.3673,-5.3848,-5.3853,-5.3858,0,0,0,0,0,0,-5.394,-5.394,-5.3916,-5.3916,-5.391,-5.384,-5.3844,-5.383,-5.3827,-5.3763,-5.3749,-5.3777,-5.3705,-5.3702,-5.3741,-5.3795,-5.3673,-5.3674,-5.3843,-5.385,-5.3855,-5.3991,0,0,0,0,0,0,-5.3941,-5.3941,-5.3971,-5.3917,-5.3911,-5.3954,-5.3848,-5.3832,-5.3829,-5.3816,-5.3769,-5.3757,-5.3702,-5.374,-5.3742,-5.3794,-5.3674,-5.3838,-5.3846,-5.3853,-5.3981,-5.4001,-5.4018,0,0,0,0,0,-5.3942,-5.4013,-5.3974,-5.3973,-5.3948,-5.3957,-5.3954,-5.3888,-5.3834,-5.3864,-5.3824,-5.3759,-5.379,-5.3745,-5.3746,-5.38,-5.3834,-5.3844,-5.3853,-5.3973,-5.3997,-5.4018,0,0,0,0,0,0,-5.4075,-5.4004,-5.396,-5.4015,-5.3993,-5.3935,-5.3971,-5.3916,-5.3909,-5.3897,-5.3817,-5.3808,-5.3857,-5.3833,-5.3784,-5.388,-5.3802,-5.3812,-5.3893,-5.3915,-5.3933,-5.3937,-5.3675,0,0,0,0,0,-5.4111,-5.4124,-5.4062,-5.4116,-5.4107,-5.4042,-5.4044,-5.3995,-5.397,-5.396,-5.3921,-5.39,-5.3904,-5.3909,-5.391,-5.3979,-5.3966,-5.4016,-5.4035,-5.405,-5.4059,-5.4093,-5.4114,-5.3888,-5.3888,-5.3888,0,0,-5.4185,-5.4148,-5.416,-5.4142,-5.4119,-5.4135,-5.4035,-5.4056,-5.4066,-5.3963,-5.3996,-5.3968,-5.3939,-5.3993,-5.4015,-5.3974,-5.4119,-5.4062,-5.4075,-5.4075,-5.4104,-5.4126,-5.4145,-5.3895,-5.3893,-5.3892,0,0,-5.4326,-5.43,-5.4342,-5.4322,-5.4289,-5.4245,-5.4256,-5.4207,-5.4184,-5.4216,-5.4139,-5.4152,-5.4162,-5.4143,-5.4136,-5.4274,-5.4214,-5.4277,-5.4372,-5.4406,-5.4423,-5.4439,-5.4486,-5.4504,-5.4287,-5.4287,-5.4287,0,-5.4422,-5.4441,-5.4371,-5.4396,-5.4391,-5.4299,-5.4341,-5.4325,-5.4295,-5.4293,-5.4249,-5.4259,-5.4233,-5.4281,-5.4315,-5.4313,-5.4322,-5.428,-5.4427,-5.4441,-5.4454,-5.4499,-5.4517,-5.4295,-5.4294,-5.4293,-5.4292,0,-5.456,-5.4575,-5.4613,-5.4585,-5.4584,-5.4619,-5.4554,-5.4562,-5.4515,-5.4477,-5.4512,-5.4478,-5.447,-5.4479,-5.4433,-5.4521,-5.4496,-5.4441,-5.436,-5.4485,-5.4525,-5.4542,-5.4306,-5.4303,-5.4301,-5.4299,0,0,-5.4779,-5.4714,-5.4729,-5.4715,-5.4673,-5.4684,-5.4715,-5.4707,-5.4715,-5.4699,-5.4722,-5.4734,-5.4682,-5.4674,-5.4626,-5.4656,-5.4766,-5.4596,-5.4594,-5.4627,-5.4859,-5.4899,-5.492,-5.4728,-5.4731,-5.4733,-5.4861,0,-5.4909,-5.4956,-5.4895,-5.4956,-5.4969,-5.4883,-5.491,-5.4889,-5.4855,-5.4862,-5.4824,-5.4833,-5.4765,-5.4759,-5.4786,-5.4747,-5.4811,-5.4738,-5.4748,-5.4749,-5.4754,-5.4941,-5.4983,-5.5105,-5.4877,-5.4879,-5.4881,0,-5.5066,-5.5056,-5.5118,-5.5073,-5.5076,-5.5101,-5.5089,-5.5097,-5.5072,-5.5045,-5.5037,-5.498,-5.5008,-5.4933,-5.497,-5.4922,-5.4923,-5.4905,-5.4908,-5.4904,-5.482,-5.494,-5.5143,-5.516,-5.4906,-5.4904,-5.4902,0,-5.5217,-5.522,-5.5257,-5.5249,-5.5198,-5.5217,-5.5197,-5.5167,-5.5167,-5.5157,-5.5156,-5.5151,-5.5148,-5.5145,-5.5089,-5.504,-5.5133,-5.5053,-5.5111,-5.5112,-5.5131,-5.513,-5.5335,-5.5138,-5.5138,-5.5137,-5.5137,0,-5.5367,-5.5408,-5.5324,-5.5347,-5.5391,-5.5322,-5.5367,-5.5339,-5.5313,-5.5329,-5.5257,-5.5274,-5.52,-5.5209,-5.5166,-5.5203,-5.5203,-5.5182,-5.5169,-5.5186,-5.5189,-5.5183,-5.5172,-5.5142,-5.5141,-5.514,-5.5139,0,-5.5541,-5.5488,-5.5522,-5.5472,-5.546,-5.5494,-5.5451,-5.547,-5.5433,-5.5455,-5.5456,-5.5397,-5.5405,-5.5349,-5.5347,-5.5318,-5.5374,-5.5349,-5.5382,-5.5373,-5.5433,-5.5427,-5.5638,-5.5662,-5.5454,-5.5456,-5.5458,0,-5.5639,-5.5668,-5.5621,-5.5626,-5.5609,-5.5619,-5.5618,-5.5553,-5.5555,-5.5529,-5.5551,-5.5553,-5.555,-5.5566,-5.5524,-5.5522,-5.5494,-5.5568,-5.5493,-5.5509,-5.5492,-5.5489,-5.5491,-5.5583,-5.5585,-5.5588,-5.5589,0,-5.5817,-5.5789,-5.5789,-5.5782,-5.5782,-5.5773,-5.576,-5.5769,-5.5698,-5.5704,-5.571,-5.5709,-5.5706,-5.5708,-5.5698,-5.5678,-5.5622,-5.5614,-5.5627,-5.5643,-5.566,-5.5649,-5.5422,-5.5609,-5.5607,-5.5605,-5.5604,-5.5603,-5.5953,-5.5975,-5.5945,-5.5949,-5.5932,-5.5921,-5.5936,-5.5901,-5.5905,-5.5897,-5.586,-5.5873,-5.5848,-5.5828,-5.5814,-5.5824,-5.5788,-5.5807,-5.5811,-5.5816,-5.5826,-5.5662,-5.5822,-5.5822,-5.5821,-5.582,-5.582,0,-5.6125,-5.6102,-5.6106,-5.6089,-5.6092,-5.604,-5.6023,-5.6029,-5.6041,-5.6023,-5.6022,-5.603,-5.6032,-5.5991,-5.5988,-5.6004,-5.5978,-5.6005,-5.6002,-5.5998,-5.5859,-5.5847,-5.6026,-5.6026,-5.6026,-5.6026,-5.6026,-5.6026,-5.6214,-5.6248,-5.6217,-5.6243,-5.6219,-5.6231,-5.6226,-5.6216,-5.62,-5.6212,-5.6213,-5.6186,-5.6159,-5.6153,-5.6154,-5.6142,-5.6143,-5.6178,-5.6157,-5.6028,-5.6008,-5.5988,-5.5976,-5.618,-5.618,-5.6295,-5.6296,-5.6297]},{"header":{"parameterUnit":"m.s-1","parameterCategory":1,"la1":30.2991,"la2":30.254,"lo1":-89.0895,"lo2":-89.0444,"dy":0.0017,"dx":0.0017,"nx":28,"ny":28,"refTime":"2025-08-08T09:00:00:Z","depth":0,"parameterNumber":3,"parameterNumberName":"V-component_of_WINDS"},"data":[0,0,0,0,0,0,0,0,0,0,0,0,0,0,0,0,0,0,0,0,0,0,0,0,0,0,0,0,0,0,0,0,0,0,0,0,0,0,0,0,0,0,0,0,0,0,0,0,0,0,0,0,0,0,0,0,0,0,1.0121,1.012,0,1.0087,1.0087,1.0087,1.0097,1.0097,1.0098,1.0099,1.0058,1.0056,1.0055,0,0,0,0,0,0,0,0,0,0,0,0,0,1.0188,1.0187,1.0121,1.012,1.012,1.0088,1.0087,1.0087,1.0096,1.0097,1.0098,1.0099,1.0059,1.0057,1.0054,0,0,0,0,0,0,0,0,0,0,0,0,0,1.0157,1.0187,1.0121,1.0121,1.0121,1.0088,1.0087,1.0086,1.0096,1.0097,1.0098,1.0099,1.0059,1.0057,1.0054,1.0017,0,0,1.0046,1.0045,0,0,0,0,0,0,0,0,1.0159,1.0155,1.0121,1.0121,1.0121,1.0097,1.0096,1.0063,1.0096,1.0105,1.0099,1.01,1.007,1.0066,1.0058,1.0015,1.0013,1.0046,1.0044,1.0043,1.0043,0,0,0,0,0,0,0,1.0161,1.0156,1.0107,1.0121,1.012,1.0121,1.0118,1.009,1.0082,1.0105,1.0105,1.0102,1.007,1.006,1.0057,1.0012,1.0046,1.0044,1.0042,1.0041,0.9938,0.9937,0,0,0,0,0,0,1.0164,1.0158,1.0108,1.0106,1.0143,1.0119,1.0116,1.0104,1.0082,1.008,1.0101,1.0102,1.0064,1.006,1.0055,1.001,1.0043,1.0041,1.0039,0.9939,0.9937,0.9936,0,0,0,0,0,0,1.0166,1.016,1.011,1.0132,1.0126,1.0117,1.0103,1.0102,1.0093,1.0079,1.0077,1.0093,1.0065,1.0059,1.0027,1.0009,1.004,1.0037,0.994,0.9938,0.9937,0.9919,0,0,0,0,0,0,1.0168,1.016,1.0147,1.0132,1.0125,1.0083,1.0102,1.0101,1.0089,1.0091,1.0071,1.0069,1.0065,1.0031,1.0024,1.0006,1.0035,0.9942,0.9939,0.9937,0.9921,0.9917,0.9913,0,0,0,0,0,1.017,1.0142,1.0146,1.014,1.0108,1.0082,1.0078,1.0076,1.0088,1.0073,1.0065,1.0069,1.0012,1.0027,1.002,1.0,0.9943,0.994,0.9938,0.9923,0.9918,0.9913,0,0,0,0,0,0,1.0152,1.014,1.0144,1.0111,1.0098,1.0084,1.0066,1.007,1.0052,1.0054,1.0051,1.0046,1.0013,1.0004,1.0021,0.9963,0.9979,0.9975,0.997,0.9965,0.9962,0.9963,1.0033,0,0,0,0,0,1.0144,1.0126,1.0116,1.0087,1.008,1.0074,1.0063,1.0063,1.0048,1.0042,1.0031,1.0015,0.9994,0.9979,0.9959,0.9921,0.9916,0.9904,0.99,0.9897,0.9892,0.9871,0.9865,0.9927,0.9927,0.9928,0,0,1.0128,1.0119,1.0107,1.0083,1.0073,1.0052,1.0069,1.0047,1.0031,1.0038,1.0007,0.9999,0.9981,0.9946,0.993,0.9937,0.9875,0.9893,0.9891,0.9888,0.9868,0.9862,0.9857,0.9926,0.9926,0.9926,0,0,1.0087,1.0079,1.0054,1.0045,1.003,1.0027,1.0021,1.0007,1.0002,0.9972,0.9977,0.9958,0.9921,0.9908,0.9897,0.9854,0.9857,0.9847,0.9825,0.9805,0.98,0.9796,0.9779,0.9773,0.9843,0.9843,0.9843,0,1.0067,1.0038,1.004,1.0018,1.0007,1.0016,0.999,0.998,0.9958,0.995,0.9959,0.9914,0.9902,0.9864,0.9854,0.9845,0.9837,0.9848,0.9801,0.9797,0.9792,0.9777,0.9771,0.9842,0.9842,0.9842,0.9842,0,1.0015,0.9995,0.9976,0.9958,0.9945,0.9921,0.9919,0.9905,0.9907,0.9902,0.9871,0.9859,0.9836,0.9827,0.9827,0.9789,0.9794,0.9802,0.9817,0.9785,0.977,0.9764,0.984,0.9841,0.9841,0.9841,0,0,0.9958,0.9944,0.9937,0.993,0.9916,0.9899,0.9876,0.9856,0.9844,0.9829,0.9808,0.9778,0.9787,0.9774,0.9773,0.9755,0.9721,0.9765,0.9765,0.9756,0.9677,0.9669,0.9663,0.9724,0.9723,0.9722,0.9678,0,0.9916,0.9876,0.9879,0.9841,0.9822,0.9831,0.981,0.9798,0.9794,0.9776,0.977,0.9749,0.9762,0.9754,0.9737,0.9729,0.9705,0.9732,0.9702,0.9701,0.9705,0.9655,0.9647,0.9605,0.9672,0.9671,0.9671,0,0.986,0.9846,0.9807,0.9797,0.9789,0.9771,0.9753,0.9737,0.9723,0.9721,0.9708,0.9711,0.9686,0.9704,0.9668,0.9687,0.9675,0.9669,0.9667,0.9663,0.9682,0.9647,0.9592,0.9585,0.9662,0.9662,0.9663,0,0.9822,0.9794,0.9767,0.976,0.9748,0.9734,0.9728,0.9717,0.9705,0.9689,0.9681,0.9662,0.9651,0.9635,0.9632,0.9646,0.9596,0.9613,0.9591,0.9591,0.9578,0.9579,0.9519,0.9574,0.9574,0.9574,0.9574,0,0.9772,0.9748,0.975,0.9733,0.9706,0.9708,0.9681,0.9676,0.9665,0.9647,0.9653,0.9635,0.9633,0.9614,0.9611,0.9581,0.9576,0.9573,0.9572,0.9571,0.9571,0.9561,0.9563,0.9572,0.9573,0.9573,0.9573,0,0.9724,0.9725,0.9696,0.9688,0.9685,0.9665,0.9657,0.9641,0.9638,0.9614,0.9609,0.9603,0.9581,0.9578,0.9551,0.9549,0.9513,0.9516,0.9518,0.9518,0.9495,0.9497,0.9425,0.9416,0.9479,0.9478,0.9478,0,0.9692,0.9673,0.9664,0.9654,0.9648,0.963,0.9619,0.9621,0.9609,0.9594,0.9578,0.9558,0.9541,0.9505,0.9498,0.9477,0.9479,0.9455,0.9475,0.9475,0.9476,0.9477,0.9474,0.945,0.945,0.9449,0.9449,0,0.9634,0.9636,0.9621,0.9606,0.9593,0.9581,0.957,0.956,0.9561,0.9546,0.9526,0.9513,0.9488,0.9466,0.9447,0.9438,0.9442,0.9443,0.9437,0.9434,0.9436,0.9433,0.9506,0.9444,0.9444,0.9445,0.9445,0.9445,0.9591,0.9576,0.9567,0.955,0.9543,0.9533,0.9517,0.9514,0.9497,0.9478,0.948,0.9457,0.9444,0.9419,0.9409,0.939,0.9397,0.9388,0.9385,0.9382,0.9379,0.9441,0.9386,0.9386,0.9386,0.9387,0.9387,0,0.9533,0.9529,0.9513,0.9499,0.9485,0.9495,0.9483,0.947,0.945,0.944,0.9424,0.94,0.938,0.9372,0.9352,0.9337,0.9339,0.9332,0.9332,0.9329,0.9375,0.9382,0.9331,0.9331,0.9331,0.9331,0.9331,0.9331,0.95,0.9475,0.9476,0.9446,0.9441,0.942,0.9413,0.9403,0.9394,0.9368,0.9352,0.9349,0.9338,0.9318,0.9299,0.9298,0.9289,0.928,0.9279,0.9321,0.9326,0.9332,0.9338,0.9279,0.9279,0.9235,0.9235,0.9234]}]]